Content
SEND FEEDBACK

Daily
Averages
Monthly
Summary
Australia

DOWNSIDE, NEW SOUTH WALES


Home > Oceania > Australia > New South Wales
Elevation: 718 feet     Latitude: 35 03S     Longitude: 147 21E

WEATHER
 
SELECT A DAY
Number of Records: 169,653;   Date Range: 2/21/03 - 8/31/14
 
SHARE

PRINT THIS DATA

[ ← Previous Day ]
WEATHER ALMANAC - JANUARY 31, 2013
[ Next Day → ]
[ °C ]   °F
Weather ElementAverageHighLow
Temperature75.2 °F91.4 °F (3:00 pm)55.4 °F (4:00 am)
Dewpoint36.4 °F51.8 °F (10:00 am)23 °F (3:32 pm)
Humidity28.1 %67 % (4:00 am)4 % (5:00 pm)
Barometer29.80 in29.92 in (12:00 am)29.66 in (6:00 pm)
Wind Speed9 mph19.6 mph (11:00 pm)
Wind Gust28.8 mph (3:32 pm)
Weather ElementAverage
Visibility11 mi
Wind DirectionSSW (191.8 °)

Weather ElementTotal
Precipitation---
Cooling Degree Days8.4 (Base 65)
Growing Degree Days23.4 (Base 50)
Averaged from 40 records on January 31, 2013
WEATHER CONDITIONS BREAKOUT
WIND DIRECTION BREAKOUT
WEATHER BY HOUR - JANUARY 31, 2013
[ °C ]   °F
Local TimeTemperatureDewpointHumidityBarometerVisibilityWind DirectionWind SpeedGust SpeedPrecipitationEventsConditions
12:00 AM64.4 °F41.0 °F42 %29.92 in6.2 miCalm
1:00 AM62.6 °F41.0 °F45 %29.89 in6.2 miSW (230°)4.6 mph
2:00 AM62.0 °F39.0 °F31 %29.88 inSE (130°)5.8 mph
2:00 AM62.6 °F39.2 °F42 %29.89 in6.2 miSE (130°)5.8 mph
3:00 AM59.0 °F42.8 °F55 %29.89 in6.2 miEast (80°)5.8 mph
3:00 AM59.0 °F42.0 °F43 %29.88 inEast (80°)5.8 mph
4:00 AM55.4 °F44.6 °F67 %29.89 in6.2 miCalm
5:00 AM56.0 °F42.0 °F50 %29.87 inSE (130°)5.8 mph
5:00 AM57.2 °F42.8 °F59 %29.89 in6.2 miSE (130°)5.8 mph
6:00 AM57.2 °F42.8 °F59 %29.89 inESE (110°)8.1 mphClear
6:00 AM58.0 °F42.0 °F44 %29.87 in16.0 miESE (110°)8.1 mphPartly Cloudy
7:00 AM59.0 °F42.8 °F55 %29.89 inEast (100°)8.1 mphClear
8:00 AM63.0 °F43.0 °F37 %29.89 inEast (100°)6.9 mph
8:00 AM62.6 °F42.8 °F48 %29.92 inEast (100°)6.9 mphClear
9:00 AM68.0 °F46.4 °F46 %29.92 inEast (90°)6.9 mphClear
9:00 AM68.0 °F46.0 °F34 %29.89 in16.0 miEast (90°)6.9 mphPartly Cloudy
10:00 AM75.2 °F51.8 °F44 %29.89 inEast (80°)6.9 mphClear
11:00 AM81.0 °F44.0 °F17 %29.86 inENE (60°)5.8 mph
11:00 AM80.6 °F44.6 °F28 %29.89 inENE (60°)5.8 mphClear
12:00 PM84.2 °F32.0 °F15 %29.86 inWest (280°)5.8 mphClear
12:00 PM83.0 °F32.0 °F8 %29.84 in19.0 miWest (280°)5.8 mphPartly Cloudy
1:00 PM86.0 °F33.8 °F15 %29.83 in6.2 miNNW (340°)8.1 mph
2:00 PM88.0 °F30.0 °F6 %29.76 inWNW (290°)9.2 mph
2:00 PM87.8 °F30.2 °F13 %29.77 in6.2 miWNW (290°)9.2 mph
3:00 PM91.4 °F28.4 °F10 %29.74 inNW (310°)8.1 mphClear
3:00 PM91.0 °F28.0 °F5 %29.73 in16.0 miNW (310°)8.1 mphHaze
3:32 PM89.6 °F23.0 °F9 %29.74 inWest (280°)17.3 mph28.8 mphClear
4:00 PM91.4 °F24.8 °F9 %29.71 inNW (310°)15.0 mphClear
5:00 PM91.0 °F24.0 °F4 %29.68 inWNW (300°)15.0 mph
5:00 PM91.4 °F23.0 °F8 %29.71 inWNW (300°)15.0 mphClear
6:00 PM91.4 °F23.0 °F8 %29.68 inWest (270°)15.0 mphClear
6:00 PM91.0 °F24.0 °F4 %29.66 in19.0 miWest (270°)15.0 mphPartly Cloudy
7:00 PM89.6 °F23.0 °F9 %29.68 inWest (270°)16.1 mphClear
8:00 PM86.0 °F25.0 °F5 %29.66 inWest (280°)12.7 mph
8:00 PM86.0 °F24.8 °F11 %29.68 inWest (280°)12.7 mphClear
9:00 PM78.0 °F36.0 °F12 %29.66 in19.0 miWSW (250°)5.8 mphPartly Cloudy
9:00 PM78.8 °F35.6 °F21 %29.68 inWSW (250°)5.8 mphClear
10:00 PM77.0 °F33.8 °F21 %29.68 inWSW (240°)12.7 mphClear
11:00 PM73.0 °F51.0 °F36 %29.69 inSW (230°)19.6 mph
11:00 PM73.4 °F51.8 °F47 %29.71 inSW (230°)19.6 mphClear
Hourly data recorded from YSWG, located miles away from Downside, New South Wales







STORIES FROM OUR PARTNERS